Montrose, CO

11:38 PM MST on January 23, 2018 (GMT -0700)
Montrose Regional

Weather History for KMTJ - November, 2013

Change the Weather History Date:

Sunday, November 17, 2013

  Actual Average Record
Temperature  
Mean Temperature 43 °F 37 °F  
Max Temperature 54 °F 49 °F 70 °F (1999)
Min Temperature 31 °F 24 °F 10 °F (2000)
Degree Days  
Heating Degree Days 22 28  
Month to date heating degree days 399 421  
Since 1 July heating degree days 1017 1012  
Cooling Degree Days 0 0  
Month to date cooling degree days 0 0  
Year to date cooling degree days 891 643  
Moisture  
Dew Point 30 °F    
Average Humidity 64    
Maximum Humidity 89    
Minimum Humidity 38    
Precipitation  
Precipitation 0.00 in 0.03 in 0.11 in (2017)
Month to date precipitation 0.08 0.49  
Year to date precipitation 9.83 10.33  
Sea Level Pressure  
Sea Level Pressure 29.99 in    
Wind  
Wind Speed 6 mph (East)    
Max Wind Speed 12 mph    
Max Gust Speed 16 mph    
Visibility 10 miles    
Events      
T = Trace of Precipitation, MM = Missing Value Source: NWS Daily Summary

Daily Weather History Graph

Daily Weather History Graph

Search for Another Location

Airport or City:

Trip Planner

Search our weather history database for the weather conditions in past years. The results will help you decide how hot, cold, wet, or windy it might be!

Date:

Astronomy

Nov. 17, 2013 Rise Set
Actual Time 6:55 AM MST 4:56 PM MST
Civil Twilight 6:27 AM MST 5:25 PM MST
Nautical Twilight 5:55 AM MST 5:57 PM MST
Astronomical Twilight 5:23 AM MST 6:29 PM MST
Moon 5:16 PM MST (11/17) 6:52 AM MST (11/17)
Length of Visible Light 10h 58m
Length of Day
10h 01m
Full, 100% of the Moon is Illuminated
Nov 17
Full
Nov 25
Last Quarter
Dec 2
New
Dec 9
First Quarter
Dec 17
Full

Hourly Weather History & Observations

Time (MST) Temp. Windchill Dew Point Humidity Pressure Visibility Wind Dir Wind Speed Gust Speed Precip Events Conditions
12:53 AM 39.9 °F 36.7 °F 33.1 °F 77% 29.71 in 10.0 mi North 4.6 mph - N/A   Overcast
1:53 AM 39.9 °F - 32.0 °F 73% 29.74 in 10.0 mi Calm Calm - N/A   Overcast
2:53 AM 39.0 °F 35.7 °F 33.1 °F 79% 29.79 in 10.0 mi South 4.6 mph - N/A   Overcast
3:53 AM 36.0 °F 31.1 °F 32.0 °F 86% 29.83 in 10.0 mi SE 5.8 mph - N/A   Mostly Cloudy
4:53 AM 34.0 °F 28.8 °F 30.9 °F 89% 29.87 in 10.0 mi SE 5.8 mph - N/A   Partly Cloudy
5:53 AM 34.0 °F 29.8 °F 30.9 °F 89% 29.89 in 10.0 mi SE 4.6 mph - N/A   Overcast
6:53 AM 36.0 °F 29.6 °F 30.9 °F 82% 29.93 in 10.0 mi ESE 8.1 mph - N/A   Mostly Cloudy
7:53 AM 37.9 °F 32.7 °F 32.0 °F 79% 29.97 in 10.0 mi East 6.9 mph - N/A   Overcast
8:53 AM 44.1 °F 42.5 °F 33.1 °F 65% 29.99 in 10.0 mi ENE 3.5 mph - N/A   Mostly Cloudy
9:53 AM 46.9 °F - 32.0 °F 56% 30.01 in 10.0 mi NNW 3.5 mph - N/A   Overcast
10:53 AM 48.9 °F - 32.0 °F 52% 30.01 in 10.0 mi North 3.5 mph - N/A   Scattered Clouds
11:53 AM 50.0 °F - 30.0 °F 46% 30.00 in 10.0 mi Variable 4.6 mph - N/A   Clear
12:53 PM 52.0 °F - 30.9 °F 45% 29.98 in 10.0 mi North 8.1 mph - N/A   Clear
1:53 PM 53.1 °F - 30.0 °F 41% 29.97 in 10.0 mi NNW 6.9 mph - N/A   Clear
2:53 PM 54.0 °F - 28.0 °F 37% 29.99 in 10.0 mi North 5.8 mph - N/A   Clear
3:53 PM 54.0 °F - 28.0 °F 37% 30.02 in 10.0 mi North 6.9 mph - N/A   Clear
4:53 PM 50.0 °F - 28.9 °F 44% 30.05 in 10.0 mi North 3.5 mph - N/A   Clear
5:53 PM 43.0 °F 41.3 °F 30.0 °F 60% 30.10 in 10.0 mi SW 3.5 mph - N/A   Clear
6:53 PM 37.9 °F 31.5 °F 30.0 °F 73% 30.14 in 10.0 mi SE 9.2 mph - N/A   Clear
7:53 PM 36.0 °F 29.6 °F 28.9 °F 76% 30.15 in 10.0 mi SE 8.1 mph - N/A   Clear
8:53 PM 34.0 °F 28.0 °F 28.0 °F 79% 30.16 in 10.0 mi SE 6.9 mph - N/A   Clear
9:53 PM 36.0 °F 29.0 °F 28.0 °F 73% 30.15 in 10.0 mi SSE 9.2 mph - N/A   Clear
10:53 PM 32.0 °F 25.6 °F 27.0 °F 82% 30.17 in 10.0 mi SE 6.9 mph - N/A   Clear
11:53 PM 30.9 °F 24.3 °F 26.1 °F 82% 30.18 in 10.0 mi SE 6.9 mph - N/A   Clear